When you browse on this site, cookies collect data to enhance your experience and personalize the content and advertising you see.
Visit our Privacy Policy to learn more. By continuing to use the site, you agree to this use of cookies and data.
  • In Schweiz
  • Länderverzeichnis
  • Für 7 Tage
  • Wassertemperatur
  • Satellitenkarten
  • Wetterkarte
  • Widgets
  • user-avatar
    Anmelden

    Stündliche Wetter Troickiy

    Heute, 20 Juni, Donnerstag

    Zeit Temperatur Niederschläge Wind Luftdruck Luftfeuchtigkeit
    00:00 +19°C° 0 mm 1 m/S 745 mmHg 73%
    01:00 +18°C° 0 mm 1 m/S 746 mmHg 75%
    02:00 +18°C° 0 mm 1 m/S 746 mmHg 78%
    03:00 +16°C° 0 mm 1 m/S 746 mmHg 80%
    04:00 +18°C° 0 mm 1 m/S 746 mmHg 80%
    05:00 +19°C° 0 mm 1 m/S 746 mmHg 80%
    06:00 +18°C° 0 mm 0 m/S 746 mmHg 80%
    07:00 +19°C° 0 mm 0 m/S 746 mmHg 75%
    08:00 +21°C° 0 mm 0 m/S 746 mmHg 71%
    09:00 +22°C° 0 mm 0 m/S 746 mmHg 66%
    10:00 +23°C° 0 mm 0 m/S 747 mmHg 61%
    11:00 +24°C° 0 mm 0 m/S 747 mmHg 56%
    12:00 +26°C° 0 mm 0 m/S 747 mmHg 51%
    13:00 +26°C° 0 mm 0 m/S 747 mmHg 50%
    14:00 +26°C° 0 mm 0 m/S 746 mmHg 49%
    15:00 +26°C° 0 mm 0 m/S 746 mmHg 49%
    16:00 +28°C° 0 mm 1 m/S 746 mmHg 53%
    17:00 +28°C° 0 mm 1 m/S 746 mmHg 57%
    18:00 +27°C° 0 mm 1 m/S 746 mmHg 61%
    19:00 +25°C° 0 mm 1 m/S 746 mmHg 64%
    20:00 +24°C° 0 mm 1 m/S 746 mmHg 67%
    21:00 +22°C° 0 mm 1 m/S 746 mmHg 70%
    22:00 +21°C° 0 mm 1 m/S 746 mmHg 72%
    23:00 +20°C° 0 mm 1 m/S 746 mmHg 74%

    Morgen, 21 Juni, Freitag

    Zeit Temperatur Niederschläge Wind Luftdruck Luftfeuchtigkeit
    00:00 +20°C° 0 mm 1 m/S 746 mmHg 75%
    01:00 +19°C° 0 mm 1 m/S 747 mmHg 76%
    02:00 +19°C° 0 mm 1 m/S 747 mmHg 77%
    03:00 +19°C° 0 mm 1 m/S 747 mmHg 78%
    04:00 +19°C° 0 mm 1 m/S 747 mmHg 79%
    05:00 +20°C° 0 mm 1 m/S 747 mmHg 80%
    06:00 +21°C° 0 mm 1 m/S 747 mmHg 81%
    07:00 +22°C° 0 mm 1 m/S 747 mmHg 76%
    08:00 +24°C° 0 mm 2 m/S 747 mmHg 72%
    09:00 +25°C° 0 mm 2 m/S 748 mmHg 67%
    10:00 +26°C° 0 mm 2 m/S 748 mmHg 64%
    11:00 +27°C° 0 mm 3 m/S 747 mmHg 60%
    12:00 +27°C° 0 mm 3 m/S 747 mmHg 56%
    13:00 +28°C° 0 mm 3 m/S 747 mmHg 56%
    14:00 +28°C° 0 mm 3 m/S 747 mmHg 57%
    15:00 +28°C° 0 mm 3 m/S 747 mmHg 57%
    16:00 +28°C° 0 mm 3 m/S 747 mmHg 61%
    17:00 +27°C° 0 mm 3 m/S 747 mmHg 65%
    18:00 +27°C° 0 mm 2 m/S 746 mmHg 69%
    19:00 +26°C° 0 mm 2 m/S 746 mmHg 73%
    20:00 +24°C° 0 mm 2 m/S 746 mmHg 76%
    21:00 +21°C° 0 mm 2 m/S 746 mmHg 80%
    22:00 +21°C° 0 mm 2 m/S 746 mmHg 81%
    23:00 +20°C° 0 mm 2 m/S 746 mmHg 83%

    übermorgen, 22 Juni, Samstag

    Zeit Temperatur Niederschläge Wind Luftdruck Luftfeuchtigkeit
    00:00 +20°C° 0 mm 3 m/S 746 mmHg 84%
    01:00 +19°C° 0 mm 3 m/S 746 mmHg 85%
    02:00 +19°C° 0 mm 3 m/S 747 mmHg 86%
    03:00 +19°C° 0 mm 3 m/S 747 mmHg 86%
    04:00 +19°C° 0 mm 3 m/S 747 mmHg 86%
    05:00 +19°C° 0 mm 3 m/S 747 mmHg 86%
    06:00 +20°C° 0 mm 3 m/S 747 mmHg 85%
    07:00 +21°C° 0 mm 3 m/S 747 mmHg 82%
    08:00 +23°C° 0 mm 4 m/S 747 mmHg 78%
    09:00 +25°C° 0 mm 4 m/S 747 mmHg 74%
    10:00 +26°C° 0.1 mm 4 m/S 747 mmHg 70%
    11:00 +27°C° 0.1 mm 5 m/S 747 mmHg 66%
    12:00 +28°C° 0.1 mm 5 m/S 747 mmHg 61%
    13:00 +28°C° 0.1 mm 5 m/S 747 mmHg 61%
    14:00 +29°C° 0.1 mm 5 m/S 746 mmHg 60%
    15:00 +29°C° 0.1 mm 5 m/S 746 mmHg 59%
    16:00 +29°C° 0 mm 4 m/S 746 mmHg 63%
    17:00 +28°C° 0 mm 4 m/S 746 mmHg 68%
    18:00 +28°C° 0 mm 4 m/S 746 mmHg 72%
    19:00 +26°C° 0 mm 3 m/S 746 mmHg 76%
    20:00 +25°C° 0 mm 3 m/S 746 mmHg 80%
    21:00 +22°C° 0 mm 3 m/S 746 mmHg 85%
    22:00 +22°C° 0 mm 3 m/S 746 mmHg 85%
    23:00 +21°C° 0 mm 3 m/S 746 mmHg 86%

    23 Juni, Sonntag

    Zeit Temperatur Niederschläge Wind Luftdruck Luftfeuchtigkeit
    00:00 +20°C° 0 mm 3 m/S 746 mmHg 87%
    01:00 +20°C° 0 mm 3 m/S 746 mmHg 88%
    02:00 +19°C° 0 mm 3 m/S 746 mmHg 90%
    03:00 +19°C° 0 mm 3 m/S 746 mmHg 91%
    04:00 +20°C° 0 mm 3 m/S 747 mmHg 90%
    05:00 +20°C° 0 mm 2 m/S 747 mmHg 89%
    06:00 +21°C° 0 mm 2 m/S 747 mmHg 88%
    07:00 +23°C° 0.1 mm 2 m/S 747 mmHg 83%
    08:00 +24°C° 0.1 mm 3 m/S 747 mmHg 79%
    09:00 +26°C° 0.1 mm 3 m/S 747 mmHg 75%
    10:00 +27°C° 0.3 mm 3 m/S 747 mmHg 70%
    11:00 +28°C° 0.3 mm 3 m/S 747 mmHg 66%
    12:00 +29°C° 0.3 mm 3 m/S 747 mmHg 62%
    13:00 +28°C° 0.7 mm 3 m/S 747 mmHg 63%
    14:00 +28°C° 0.7 mm 3 m/S 747 mmHg 65%
    15:00 +28°C° 0.7 mm 4 m/S 747 mmHg 66%
    16:00 +27°C° 0.7 mm 4 m/S 747 mmHg 70%
    17:00 +26°C° 0.7 mm 4 m/S 747 mmHg 75%
    18:00 +26°C° 0.7 mm 4 m/S 747 mmHg 79%
    19:00 +24°C° 0.1 mm 3 m/S 747 mmHg 82%
    20:00 +22°C° 0.1 mm 3 m/S 748 mmHg 84%
    21:00 +20°C° 0.1 mm 3 m/S 748 mmHg 87%
    22:00 +19°C° 0 mm 3 m/S 748 mmHg 87%
    23:00 +19°C° 0 mm 3 m/S 748 mmHg 86%

    24 Juni, Montag

    Zeit Temperatur Niederschläge Wind Luftdruck Luftfeuchtigkeit
    00:00 +18°C° 0 mm 4 m/S 748 mmHg 85%
    01:00 +17°C° 0 mm 4 m/S 749 mmHg 82%
    02:00 +17°C° 0 mm 3 m/S 749 mmHg 78%
    03:00 +16°C° 0 mm 3 m/S 749 mmHg 75%
    04:00 +16°C° 0 mm 3 m/S 749 mmHg 76%
    05:00 +16°C° 0 mm 3 m/S 749 mmHg 77%
    06:00 +16°C° 0 mm 3 m/S 750 mmHg 78%
    07:00 +17°C° 0 mm 4 m/S 750 mmHg 74%
    08:00 +18°C° 0 mm 4 m/S 750 mmHg 69%
    09:00 +19°C° 0 mm 5 m/S 750 mmHg 65%
    10:00 +20°C° 0 mm 5 m/S 750 mmHg 62%
    11:00 +21°C° 0 mm 5 m/S 750 mmHg 60%
    12:00 +22°C° 0 mm 5 m/S 751 mmHg 57%
    13:00 +22°C° 0 mm 5 m/S 750 mmHg 57%
    14:00 +22°C° 0 mm 5 m/S 750 mmHg 57%
    15:00 +23°C° 0 mm 5 m/S 750 mmHg 57%
    16:00 +22°C° 0 mm 4 m/S 750 mmHg 60%
    17:00 +22°C° 0 mm 4 m/S 750 mmHg 63%
    18:00 +22°C° 0 mm 3 m/S 750 mmHg 66%
    19:00 +20°C° 0 mm 3 m/S 750 mmHg 69%
    20:00 +19°C° 0 mm 3 m/S 750 mmHg 71%
    21:00 +17°C° 0 mm 2 m/S 751 mmHg 74%
    22:00 +17°C° 0 mm 2 m/S 751 mmHg 75%
    23:00 +16°C° 0 mm 2 m/S 751 mmHg 75%

    25 Juni, Dienstag

    Zeit Temperatur Niederschläge Wind Luftdruck Luftfeuchtigkeit
    00:00 +15°C° 0 mm 2 m/S 751 mmHg 75%
    01:00 +14°C° 0 mm 3 m/S 751 mmHg 76%
    02:00 +13°C° 0 mm 3 m/S 751 mmHg 77%
    03:00 +13°C° 0 mm 3 m/S 751 mmHg 78%
    04:00 +13°C° 0 mm 3 m/S 751 mmHg 78%
    05:00 +14°C° 0 mm 2 m/S 751 mmHg 79%
    06:00 +15°C° 0 mm 2 m/S 751 mmHg 80%
    07:00 +16°C° 0 mm 2 m/S 751 mmHg 74%
    08:00 +18°C° 0 mm 2 m/S 751 mmHg 68%
    09:00 +19°C° 0 mm 3 m/S 752 mmHg 62%
    10:00 +20°C° 0 mm 3 m/S 751 mmHg 59%
    11:00 +21°C° 0 mm 2 m/S 751 mmHg 56%
    12:00 +23°C° 0 mm 2 m/S 751 mmHg 52%
    13:00 +23°C° 0 mm 2 m/S 751 mmHg 52%
    14:00 +23°C° 0 mm 2 m/S 751 mmHg 52%
    15:00 +23°C° 0 mm 2 m/S 750 mmHg 51%
    16:00 +23°C° 0 mm 1 m/S 750 mmHg 53%
    17:00 +23°C° 0 mm 1 m/S 750 mmHg 55%
    18:00 +23°C° 0 mm 1 m/S 750 mmHg 57%
    19:00 +21°C° 0.1 mm 1 m/S 750 mmHg 62%
    20:00 +19°C° 0.1 mm 1 m/S 749 mmHg 68%
    21:00 +18°C° 0.1 mm 1 m/S 749 mmHg 73%
    22:00 +16°C° 0 mm 1 m/S 749 mmHg 74%
    23:00 +16°C° 0 mm 1 m/S 749 mmHg 75%
    Mehr zeigen